Regional Weather Roundup
Issued by NWS Jackson, KY

Home | Current Version | Previous Version | Text Only | Print | Product List | Glossary Off
Versions: 1 2 3 4 5 6 7 8 9 10 11 12 13 14 15 16 17 18 19 20 21 22 23 24 25 26 27 28 29 30 31 32 33 34 35 36 37 38 39 40 41 42 43 44 45 46 47 48 49 50

000
ASUS43 KJKL 041210
RWRJKL

EAST KENTUCKY HOURLY WEATHER ROUNDUP
NATIONAL WEATHER SERVICE JACKSON KY
800 AM EDT FRI SEP 04 2015

NOTE: "FAIR" INDICATES FEW OR NO CLOUDS BELOW 12,000 FEET WITH
NO SIGNIFICANT WEATHER AND/OR OBSTRUCTIONS TO VISIBILITY.

* THESE REPORTS ARE NOT UNDER NWS QUALITY CONTROL AND MAY NOT
  REPORT WEATHER SUCH AS PRECIPITATION AND FOG.

KYZ079-080-083-085-087-088-110-112-115-119-120-041300
...EASTERN KENTUCKY...

CITY           SKY/WX    TMP DP  RH WIND       PRES   REMARKS
JACKSON        CLEAR     68  66  93 CALM      30.08R FOG
6HR MIN TEMP:  68; 6HR MAX TEMP:  73;

LONDON         CLEAR     67  62  84 CALM      30.08R HAZE
6HR MIN TEMP:  65; 6HR MAX TEMP:  70;

SOMERSET*      PTCLDY    63  63 100 CALM      30.08R FOG
MONTICELLO*    FOG       64  64 100 CALM      30.09S VSB 3/4
6HR MIN TEMP:  62; 6HR MAX TEMP:  66;

WILLIAMSBURG*  CLOUDY    63  63 100 CALM      30.08R
MIDDLESBORO*   FOG       65  65 100 CALM      30.10R VSB 1
6HR MIN TEMP:  64; 6HR MAX TEMP:  66;

HARLAN APT*      N/A     64  63  94 MISG      30.11R VSB<1/4
HAZARD APT*    PTSUNNY   66  66 100 CALM      30.09R FOG
BLACK MTN*       N/A     64  63  94 N3          N/A
PIKEVILLE APT* MOSUNNY   66  66 100 CALM      30.09R FOG
BIG SANDY*     SUNNY     67  67  99 CALM      30.07S FOG
6HR MIN TEMP:  65; 6HR MAX TEMP:  69;

MOREHEAD APT*  FOG       68  66  94 CALM      30.08R VSB 1
$$

KYZ035-036-041-042-044-050-067-078-099-041300
...CENTRAL KENTUCKY...

CITY           SKY/WX    TMP DP  RH WIND       PRES   REMARKS
MT STERLING*     N/A     64  64 100 CALM      30.08R FOG
FLEMING/MASON* CLEAR     70  68  94 S5        30.07R FOG
DANVILLE*      CLEAR     64  64 100 CALM      30.07S FOG
RICHMOND*      CLEAR     66  64  94 CALM      30.06R
LEXINGTON      CLEAR     68  65  90 S3        30.06R FOG
6HR MIN TEMP:  66; 6HR MAX TEMP:  73;

FRANKFORT      CLEAR     67  64  90 CALM      30.04R FOG
6HR MIN TEMP:  65; 6HR MAX TEMP:  70;

$$

KYZ091>093-OHZ055-061-077-WVZ005-015-034-035-042-041300
...SOUTHERN OHIO/WEST VIRGINIA...

CITY           SKY/WX    TMP DP  RH WIND       PRES   REMARKS
COVINGTON      PTCLDY    68  67  96 CALM      30.04R
COLUMBUS       CLOUDY    68  65  90 SE8       30.05R
DAYTON         MOCLDY    70  68  93 SE7       30.05R
WILMINGTON     PTCLDY    68  66  93 CALM      30.05R FOG
HUNTINGTON     SUNNY     66  65  96 CALM      30.05R FOG
CHARLESTON     FOG       67  66  97 CALM      30.07R VSB 1/2
PINEVILLE*     FOG       65  65 100 MISG      30.16R VSB<1/4
BECKLEY        SUNNY     65  62  90 CALM      30.13R FOG
BLUEFIELD      SUNNY     67  63  87 SW3       30.16R FOG
$$

VAZ002-007-008-TNZ017-027-036-066-071-041300
...SOUTHWEST VIRGINIA/EAST TENNESSEE...

CITY           SKY/WX    TMP DP  RH WIND       PRES   REMARKS
WISE*          SUNNY     66  66 100 CALM      30.16R
JONESVILLE*    SUNNY     63  61  94 CALM      30.11R FOG
ABINGDON*      SUNNY     66  65  94 E5        30.11S FOG
BRISTOL        SUNNY     65  63  93 CALM      30.09R FOG
KNOXVILLE      CLEAR     68  68 100 CALM      30.04R FOG
OAK RIDGE      CLEAR     69  66  90 CALM      30.06R FOG
CROSSVILLE     CLEAR     66  63  90 CALM      30.10R FOG
NASHVILLE      CLEAR     73  67  81 CALM      30.04R
$$

...KEY TO REMARKS...
VSB - VISIBILITY IN MILES
WCI - WIND CHILL INDEX
HX  - HEAT INDEX

$$


USA.gov is the U.S. government's official web portal to all federal, state and local government web resources and services.